Date,TemperatureHighF,TemperatureAvgF,TemperatureLowF,DewpointHighF,DewpointAvgF,DewpointLowF,HumidityHigh,HumidityAvg,HumidityLow,PressureMaxIn,PressureMinIn,WindSpeedMaxMPH,WindSpeedAvgMPH,GustSpeedMaxMPH,PrecipitationSumIn
2013-2-1,70.0,59.4,51.0,54.0,45.3,40.0,87,61,40,30.13,30.06,8,3,12,0.00
2013-2-2,70.0,60.0,53.0,56.0,49.8,43.0,88,70,44,30.14,30.06,7,3,13,0.00
2013-2-3,67.0,60.7,54.0,56.0,53.1,49.0,98,77,59,30.09,29.99,10,4,13,0.00
2013-2-4,57.0,53.0,48.0,54.0,52.0,48.0,100,97,91,30.08,29.96,7,2,13,0.01
2013-2-5,55.0,53.4,51.0,53.0,51.3,49.0,99,92,84,30.09,29.97,5,2,9,0.00
2013-2-6,59.0,55.0,50.0,52.0,49.6,47.0,94,82,71,30.08,29.98,10,3,14,0.00
2013-2-7,59.0,53.5,48.0,54.0,49.1,44.0,96,86,70,30.10,30.00,10,6,17,0.00
2013-2-8,54.0,51.9,45.0,49.0,44.3,40.0,93,76,66,30.00,29.88,15,9,25,0.08
2013-2-9,57.0,48.6,41.0,46.0,43.0,40.0,96,82,61,30.09,29.90,7,5,14,0.06
2013-2-10,57.0,49.7,44.0,46.0,42.5,41.0,90,77,57,30.09,30.00,9,4,14,0.01
2013-2-11,57.0,49.8,42.0,48.0,44.4,40.0,92,82,70,30.20,30.02,13,6,18,0.00
2013-2-12,59.0,50.1,42.0,50.0,41.6,30.0,92,74,41,30.31,30.21,9,6,16,0.00
2013-2-13,59.0,50.9,43.0,54.0,45.0,36.0,97,81,56,30.23,30.11,9,4,14,0.00
2013-2-14,62.0,53.4,46.0,52.0,48.0,42.0,96,82,57,30.19,30.03,10,4,16,0.01
2013-2-15,73.0,62.5,52.0,47.0,35.9,24.0,69,39,23,30.13,30.07,9,4,12,0.01
2013-2-16,76.0,63.6,55.0,53.0,30.2,21.0,62,30,17,30.10,29.95,12,5,18,0.00
2013-2-17,62.0,54.6,48.0,54.0,45.9,31.0,89,74,35,30.01,29.91,10,5,20,0.00
2013-2-18,59.0,54.1,52.0,50.0,47.5,44.0,87,78,71,30.03,29.95,9,4,15,0.00
2013-2-19,55.0,52.1,47.0,49.0,44.9,43.0,91,76,65,29.98,29.72,16,7,29,0.13
2013-2-20,56.0,50.6,44.0,46.0,39.3,34.0,93,66,49,29.99,29.70,22,11,38,0.14
2013-2-21,59.0,50.8,44.0,47.0,43.2,38.0,90,76,62,30.07,29.95,10,6,14,0.01
2013-2-22,59.0,50.9,43.0,51.0,44.7,38.0,92,80,60,30.17,30.07,12,5,16,0.00
2013-2-23,59.0,52.1,44.0,52.0,46.0,39.0,90,80,56,30.14,29.92,9,5,14,0.00
2013-2-24,65.0,53.2,45.0,47.0,41.4,25.0,91,68,23,30.17,29.95,12,5,20,0.00
2013-2-25,62.0,52.7,44.0,49.0,35.3,20.0,86,54,27,30.19,30.05,10,5,15,0.00
2013-2-26,61.0,52.3,43.0,50.0,38.9,28.0,84,61,38,30.08,29.95,10,5,15,0.00
2013-2-27,70.0,58.9,50.0,43.0,31.2,20.0,60,37,17,30.23,30.07,12,5,20,0.00
2013-2-28,72.0,60.5,50.0,41.0,29.6,19.0,50,32,20,30.26,30.19,13,5,18,0.00